Piloten Info

Wichtige Hinweise:

  • Neue Tower Frequenz 122,330 kHz - keine Landung ohne Funkkontakt
  • PPR Betrieb
  • Temporäre Hindernisse (Baukräne) nahe dem Flugplatz durch Bauarbeiten entlang der Nürnberger Straße (Östliche Seite).
  • Starts auf RWY 09 sind nicht gestattet. Start generell auf RWY 27. Bei Planung Rückenwinde berücksichtigen!
  • Bei Anflügen auf RWY 27 sind Hindernisse vorhanden, aus diesem Grund die versetzte Schwelle27!
  • Der Flugverein Neumarkt führt seine Starts generell auf RWY 27 und Landungen auf RWY09 durch.
  • Es besteht keine Tankmöglichkeit.

Diese Hinweis sind als Ergänzung / Hilfe zur regulären Flugplanung gedacht.

Auszüge aus AIP VFR ohne Gewähr - es gelten die offiziellen Veröffentlichungen.







METAR Informationen der nächstgelegenen Flughäfen


EDDN / Flughafen Nürnberg „Albrecht Dürer“

EDDN 260620Z VRB01KT 2200 BR FEW003 M01/M02 Q1019 TEMPO BKN003

ETIC / Fliegerhorst Grafenwöhr AAF

ETIC 260626Z AUTO 00000KT 1000 R14/0900V1300 FZFG VV002 00/00 A3009 RMK AO2 SLP214 $

ETIH / Fliegerhorst Hohenfels AAF

ETIH 260556Z AUTO 00000KT 4000 BR CLR M01/M02 A3011 RMK AO2 SLP225 T10151025 11013 21016 50000 $